Location: Agdenes
(63.5833°N, 9.5167°E)
Time: 09:56:24
(UTC+00:00)

Daily predictions for brighter satellites

Satellite Brightness Start Highest point End
(mag) Time Altitude Azimuth Time Altitude Azimuth Time Altitude Azimuth
Cosmos 1825 Rocket 3.5 16:46:01 10° NNW 16:50:25 82° ENE 16:54:48 10° SSE
Lacrosse 5 2.9 16:46:03 10° WSW 16:50:47 40° S 16:55:30 10° ESE
SJ 16-02 2.7 16:47:40 10° NNW 16:51:22 25° NNE 16:55:03 10° E
Cosmos 1953 Rocket 3.6 16:47:07 10° NNW 16:51:33 66° ENE 16:55:55 10° SSE
CZ-4 R/B 1.5 16:47:32 10° SSE 16:51:43 71° ENE 16:55:58 10° NNW
Cosmos 1470 3.3 16:48:08 10° SSE 16:51:52 39° E 16:55:36 10° NNE
YAOGAN 6 2.6 16:48:39 10° SSE 16:52:17 62° ENE 16:55:53 10° NNW
H-2A R/B 3.1 16:49:44 10° ESE 16:54:15 29° NE 16:58:51 10° NNW
Cosmos 405 Rocket 4.1 16:53:33 10° SW 16:57:21 44° WNW 17:01:14 10° NNE
Aureole 3 3.7 16:52:59 10° SSW 16:57:31 71° WNW 17:01:10 10° NNE
Cosmos 1733 3.2 16:53:43 10° S 16:57:34 70° ESE 17:01:27 10° NNE
GEOS 3 Rocket 3.7 16:54:57 10° ENE 17:00:07 78° N 17:05:19 10° W
COBE Rocket 4.4 16:55:21 10° NNE 17:00:18 42° E 17:05:12 10° SSE
Cosmos 371 Rocket 3.4 16:57:20 10° SSW 17:02:02 54° ESE 17:06:45 10° NE
Cosmos 1110 Rocket 4.1 16:57:44 10° SSW 17:03:02 70° ESE 17:08:19 10° NE
ATLAS 5 CENTAUR R/B 3.2 17:00:36 10° SSE 17:03:39 18° ESE 17:06:57 10° E
Cosmos 2181 Rocket 4.2 16:57:31 10° SSW 17:04:00 86° WNW 17:10:31 10° NNE
CZ-4B R/B 3.5 17:02:37 10° N 17:05:16 26° WNW 17:07:53 10° WSW
HJ-1C 4.2 17:02:13 10° SE 17:05:17 32° ENE 17:08:20 10° N
Cosmos 304 Rocket 4.4 17:01:35 10° S 17:05:55 35° ESE 17:10:18 10° NE
Cosmos 1184 Rocket 2.9 17:05:06 10° SSW 17:08:26 86° WNW 17:11:48 10° NNE
CZ-2C R/B 4.3 17:05:33 10° E 17:10:27 29° NE 17:15:18 10° NNW
Cosmos 2058 4.1 17:07:59 10° N 17:11:30 25° NE 17:15:00 10° ESE
Cosmos 1758 Rocket 4.1 17:08:48 10° NNW 17:13:12 67° W 17:17:37 10° S
Cosmos 1606 Rocket 4.0 17:10:47 10° SSE 17:14:52 40° E 17:18:58 10° NNE
Cosmos 1818 3.6 17:11:06 10° WSW 17:16:35 78° SSE 17:22:04 10° ENE
SL-27 R/B 4.1 17:16:02 10° NNW 17:18:35 20° NNE 17:20:42 12° ENE
Cosmos 1898 Rocket 4.0 17:14:00 10° NW 17:19:01 43° NE 17:23:51 11° ESE
Cosmos 2263 Rocket 2.2 17:13:25 10° SSW 17:19:03 70° SE 17:24:41 10° NE
Cosmos 1271 Rocket 3.2 17:16:40 10° NNW 17:20:35 66° WSW 17:24:31 10° S
CSL-04 Rocket 3.8 17:15:06 10° SSE 17:20:40 84° WSW 17:26:12 10° NNW
NOAA 11 4.2 17:18:03 10° SSE 17:23:29 73° ENE 17:28:56 10° NNW
Cosmos 1892 4.3 17:21:35 10° N 17:24:21 18° NE 17:26:13 14° E
SL-24 R/B - RUBIN 2 4.4 17:20:54 10° SSW 17:25:50 50° SE 17:31:24 10° ENE
Cosmos 1833 Rocket 2.7 17:21:00 10° NW 17:26:41 90° NE 17:32:20 10° SE
Envisat 3.7 17:21:46 10° S 17:26:48 60° WSW 17:31:53 10° NNW
SKYMED 2 3.8 17:23:30 10° NNE 17:27:43 46° E 17:31:55 10° S
Cosmos 1626 4.1 17:25:10 10° NNW 17:28:35 34° W 17:31:59 10° SSW
CZ-2D R/B 3.2 17:24:57 10° SSE 17:28:47 72° ENE 17:32:42 10° NNW
EO 1 Delta rocket 3.9 17:28:02 10° SSE 17:32:39 78° ENE 17:37:50 10° NNW
ADEOS Rocket 4.5 17:29:58 10° NNE 17:36:07 25° ENE 17:42:07 10° SE
Cosmos 1703 3.2 17:32:09 10° NNW 17:36:09 84° ENE 17:40:06 10° SSE
Cosmos 1825 4.1 17:34:49 10° NNE 17:36:46 14° NE 17:37:47 12° ENE
Cosmos 1607 4.0 17:31:19 10° SW 17:37:22 61° SE 17:43:16 11° ENE
SL-16 R/B 4.4 17:33:59 10° NNE 17:38:58 26° NNW 17:43:56 10° W
ARGOS 3.6 17:34:31 10° ESE 17:39:37 43° NE 17:44:44 10° NNW
Cosmos 1461 3.4 17:37:37 10° WNW 17:41:32 53° SW 17:45:33 10° SE
Cosmos 1356 4.4 17:38:46 10° SSE 17:41:42 26° E 17:44:39 10° NE
Cosmos 2227 4.3 17:36:26 10° SW 17:42:09 83° NW 17:47:57 10° NE
COSMOS 2406 4.0 17:36:40 10° NW 17:42:19 55° WSW 17:47:55 10° SSE
YAOGAN 1 3.1 17:38:08 10° S 17:42:26 63° WSW 17:46:46 10° NNW
Cosmos 2227 Rocket 3.1 17:37:12 10° W 17:42:41 46° NNW 17:48:11 10° NE
Cosmos 2084 Rocket 3.9 17:38:43 10° WNW 17:43:08 63° SSW 17:46:50 14° ESE
Cosmos 1953 2.3 17:39:09 10° S 17:43:12 68° ESE 17:47:17 10° NNE
Cosmos 2082 Rocket 2.2 17:38:27 10° NW 17:44:14 88° NE 17:49:59 10° SE
Cosmos 1726 2.7 17:41:44 10° SSE 17:45:05 34° E 17:48:27 10° NNE
Cosmos 1076 Rocket 3.8 17:41:27 10° N 17:45:43 47° ENE 17:49:58 10° SE
Cosmos 2082 4.4 17:40:17 10° W 17:45:52 50° NNW 17:51:24 10° NE
Cosmos 1331 Rocket 4.1 17:41:23 10° SW 17:46:38 79° NW 17:51:51 10° NE
SJ-6B 3.2 17:44:02 13° SE 17:47:11 41° ENE 17:50:46 10° N
ASTEX 1 3.3 17:43:18 10° N 17:48:16 79° E 17:53:15 10° S
Cosmos 2297 Rocket 3.1 17:43:14 10° W 17:48:40 45° NNW 17:54:07 10° ENE
Cosmos 1758 3.5 17:44:59 10° SSW 17:48:58 77° WNW 17:52:58 10° NNE
Meteor 1-11 4.4 17:46:41 10° NNW 17:52:26 84° WSW 17:58:13 10° SSE
Cosmos 1242 Rocket 3.4 17:50:09 10° NNW 17:53:47 53° WSW 17:57:23 10° S
Cosmos 332 Rocket 3.8 17:50:19 10° SW 17:55:11 88° NW 18:00:08 10° NE
IRS-1A Rocket 4.2 17:50:20 10° SSE 17:55:52 89° WSW 18:01:27 10° NNW
Cosmos 1726 Rocket 3.5 17:52:43 10° S 17:57:05 68° E 18:01:27 10° NNE
MOS 1 4.2 17:51:28 10° SSE 17:57:08 80° ENE 18:02:50 10° NNW
USA 186 1.5 18:02:29 32° ESE 18:03:19 46° ENE 18:05:50 10° N
Cosmos 1605 Rocket 4.1 17:57:31 10° NNW 18:03:51 84° WSW 18:10:02 10° S
Cosmos 1459 Rocket 4.1 17:58:54 10° NNW 18:04:58 57° ENE 18:11:07 10° SE
Cosmos 2058 Rocket 3.0 18:02:41 10° S 18:06:59 60° E 18:11:19 10° NNE
Cosmos 1302 Rocket 4.0 18:02:08 10° SW 18:07:24 87° NW 18:12:42 10° NE
SJ-11-01 4.2 18:02:47 10° SSE 18:07:29 76° ENE 18:12:12 10° NNW
Cosmos 1939 Rocket 3.3 18:03:45 10° S 18:07:44 65° WSW 18:11:49 10° NNW
Ariane Rocket 3.3 18:04:11 10° SSE 18:09:17 71° WSW 18:14:26 10° NNW
Cosmos 2228 3.0 18:05:58 10° SSW 18:10:22 86° ESE 18:14:45 10° NNE
FREGAT/IRIS 2.3 18:08:35 19° SSE 18:10:29 80° ENE 18:13:20 10° NNW
ATLAS CENTAUR R/B 1.7 18:05:38 10° W 18:10:30 77° N 18:13:14 24° E
Terra 3.6 18:12:14 15° ENE 18:13:51 18° NE 18:16:58 10° N
In-Cosmos 22 Rocket 4.1 18:08:48 10° NNW 18:14:06 60° ENE 18:18:22 16° SE
SPOT 3 Rocket 3.5 18:09:17 10° SSE 18:14:27 72° ENE 18:19:40 10° NNW
SPOT 5 4.5 18:13:12 18° ENE 18:15:20 24° NE 18:19:29 10° NNW
COSMO-SKYMED 1 2.6 18:11:36 10° NNE 18:16:00 86° WNW 18:20:21 10° SSW
Cosmos 1802 Rocket 4.1 18:09:53 10° NNW 18:16:16 59° ENE 18:21:55 13° SE
Cosmos 1844 Rocket 2.8 18:12:06 10° SSW 18:17:37 55° ESE 18:23:07 10° NE
Meteor 1-16 Rocket 4.0 18:13:29 10° S 18:18:59 74° ESE 18:24:22 10° NNE
Cosmos 1992 Rocket 3.9 18:14:14 10° SSW 18:19:24 64° ESE 18:24:36 10° NE
Meteor 2-10 3.9 18:14:51 10° S 18:19:50 62° ESE 18:24:50 10° NNE
Cosmos 1727 Rocket 4.1 18:14:37 10° SSE 18:20:30 48° E 18:26:24 10° NNE
Cosmos 1937 Rocket 3.5 18:15:33 10° NW 18:20:43 63° NE 18:23:37 26° ESE
Nadezhda 3 Rocket 4.3 18:15:04 10° SSW 18:21:23 75° WNW 18:27:48 10° NNE
Cosmos 921 Rocket 3.2 18:17:36 10° S 18:21:59 52° ESE 18:26:20 10° NE
Cosmos 2219 4.2 18:17:15 10° WNW 18:22:37 40° N 18:26:45 16° ENE
Resurs 01 Rocket 2.0 18:21:45 28° ESE 18:23:41 45° ENE 18:27:57 10° NNW
Cosmos 1908 3.2 18:20:52 10° S 18:24:42 56° E 18:28:32 10° NNE
Cosmos 2173 Rocket 4.0 18:19:26 10° NNW 18:25:49 71° ENE 18:31:56 11° SSE
Cosmos 2151 3.3 18:21:39 10° N 18:25:49 45° ENE 18:27:21 32° ESE
USA 116 3.0 18:23:36 10° NNE 18:26:45 86° ESE 18:29:54 10° SSW
CZ-4 R/B 3.8 18:23:34 10° SSW 18:27:09 27° W 18:30:46 10° NNW
Cosmos 1470 4.1 18:24:09 10° SW 18:27:57 42° WNW 18:31:47 10° N
Okean 3 Rocket 3.7 18:24:30 10° NNW 18:29:02 56° ENE 18:31:16 28° SE
SJ 16-02 1.4 18:26:23 10° NNW 18:30:47 60° NE 18:32:32 34° ESE
Cosmos 990 Rocket 3.9 18:26:11 10° NW 18:31:24 79° NE 18:34:24 26° SE
Cosmos 2084 4.4 18:28:34 10° SSW 18:32:29 30° SE 18:32:39 30° SE
Lacrosse 5 3.3 18:28:39 10° W 18:32:59 29° SSW 18:35:56 17° SSE
H-2A R/B 2.1 18:28:31 14° SSE 18:33:06 79° ENE 18:38:35 10° NNW
Cosmos 2278 Rocket 2.9 18:29:11 10° SSE 18:34:01 30° ESE 18:34:56 28° E
deb Kosmos-1763 4.3 18:32:44 10° NW 18:36:25 53° NE 18:37:11 44° E
Cosmos 1844 3.7 18:31:33 10° SSW 18:37:11 60° SE 18:42:55 10° NE
GEOS 3 Rocket 3.6 18:35:32 30° E 18:38:11 85° NNE 18:43:24 10° WNW
SL-08 RB Rocket 3.7 18:36:47 29° SE 18:39:03 65° ENE 18:43:34 10° NNW
Cosmos 1766 Rocket 3.6 18:34:55 10° NNW 18:39:12 54° ENE 18:40:33 38° ESE
Cosmos 1725 Rocket 4.1 18:35:58 10° NNW 18:42:10 59° ENE 18:45:48 26° SE
Cosmos 371 Rocket 4.2 18:37:54 10° WSW 18:42:36 49° NW 18:47:18 10° NE
Spot 2 Rocket 3.8 18:41:05 33° ESE 18:42:53 47° ENE 18:47:46 10° NNW
Cosmos 2100 Rocket 3.9 18:37:05 10° NNW 18:43:23 88° ENE 18:49:35 10° SSE
MetOp-A 4.1 18:42:04 26° SE 18:45:07 69° ENE 18:50:29 10° NNW
Cosmos 304 Rocket 4.0 18:41:09 10° SW 18:45:58 70° NW 18:50:47 10° NE
ATLAS 5 CENTAUR R/B 2.0 18:42:48 10° SW 18:47:14 50° SE 18:48:44 37° E
Resurs 1-3 3.5 18:45:53 33° SE 18:47:47 74° ENE 18:52:13 10° NNW
Cosmos 292 Rocket 3.8 18:43:48 10° S 18:48:23 51° ESE 18:53:02 10° NE
Cosmos 1500 Rocket 4.4 18:44:36 10° N 18:48:41 32° ENE 18:49:01 32° ENE
Cosmos 2233 Rocket 4.3 18:42:41 10° NNW 18:48:46 49° ENE 18:51:23 32° ESE
Cosmos 2058 2.9 18:44:42 10° NNW 18:48:57 83° WSW 18:51:27 24° S
CZ-2C R/B 3.3 18:45:55 23° SSE 18:49:41 74° ENE 18:55:28 10° NNW
CZ-2C R/B 4.4 18:49:02 10° NE 18:51:20 17° ENE 18:51:20 17° ENE
CZ-2C R/B 3.9 18:49:09 10° NNE 18:53:29 45° E 18:54:02 43° ESE
SL-27 R/B 2.4 18:51:00 10° NNW 18:54:16 60° NE 18:54:16 60° NE
Cosmos 1833 4.4 18:50:03 10° NW 18:55:38 58° NNE 18:57:48 35° E
COSMOS 2487 3.8 18:53:36 10° NNW 18:56:33 27° NNE 18:56:33 27° NNE
Cosmos 1408 Rocket 3.6 18:52:24 10° NNW 18:56:40 53° ENE 18:57:15 49° E
SWAS 4.5 18:53:00 10° SSW 18:57:11 54° SE 18:57:41 51° ESE
Cosmos 1238 Rocket 4.4 18:52:52 10° NNW 18:59:12 50° ENE 19:01:40 35° ESE
Cosmos 1818 3.6 18:54:50 10° W 19:00:20 77° N 19:02:44 35° ENE
Cosmos 1892 2.5 18:56:52 10° NNW 19:00:44 76° ENE 19:01:13 64° SE
Cosmos 1898 Rocket 3.6 18:56:14 10° NW 19:01:29 74° WSW 19:04:08 30° SSE
Cosmos 2263 Rocket 2.8 18:57:42 10° WSW 19:03:16 54° NNW 19:08:22 12° NE
ERS-1 Rocket 3.6 19:02:35 36° ENE 19:03:27 38° NE 19:08:07 10° NNW
Cosmos 372 Rocket 4.1 19:00:03 10° NW 19:05:14 61° NE 19:06:37 45° E
Cosmos 2016 Rocket 3.9 19:02:46 10° NNW 19:09:02 88° ENE 19:13:08 23° SSE
Meteor 2-1 Rocket 4.3 19:07:47 40° SE 19:09:05 48° E 19:14:27 10° NNE
SL-24 R/B - RUBIN 2 4.1 19:04:10 10° WSW 19:09:31 90° NNW 19:12:16 34° ENE
Cosmos 1833 Rocket 4.2 19:05:13 10° NW 19:10:10 32° WSW 19:15:06 10° S
Cosmos 1812 Rocket 3.4 19:07:06 16° S 19:10:37 74° ESE 19:15:07 10° NNE
Timation 2 Rocket 4.1 19:04:53 10° NW 19:10:53 60° NNE 19:13:05 38° E
Cosmos 1825 2.8 19:09:32 10° N 19:12:36 43° NNE 19:12:36 43° NNE
SL-08 R/B 4.4 19:07:06 10° NNW 19:13:21 84° ENE 19:16:36 30° SSE
Cosmos 489 Rocket 4.3 19:07:33 10° SSW 19:13:44 73° ESE 19:19:58 10° NE
Cosmos 1408 2.9 19:10:26 10° NNW 19:13:39 53° NNE 19:13:39 53° NNE
Cosmos 1932 4.4 19:08:42 10° SW 19:15:02 71° SSE 19:18:29 29° ENE
Cosmos 2061 Rocket 4.0 19:09:18 10° NNW 19:15:40 84° WSW 19:19:54 22° S
Cosmos 1356 4.3 19:12:38 10° SW 19:16:01 50° WNW 19:19:25 10° NNE
Landsat 7 4.2 19:17:47 44° ENE 19:18:05 45° ENE 19:22:38 10° NNW
IGS 5A 4.3 19:20:01 36° NE 19:20:01 36° NE 19:23:25 10° N
ARGOS 3.5 19:15:47 18° S 19:19:47 63° WSW 19:25:14 10° NNW
Cosmos 1726 3.4 19:16:48 10° SW 19:20:18 41° WNW 19:23:48 10° N
SJ-6B 4.0 19:19:40 20° SSW 19:21:55 38° W 19:25:30 10° NNW
ADEOS Rocket 3.5 19:15:19 10° NNE 19:23:07 64° ESE 19:30:39 10° S
Cosmos 1607 3.9 19:18:23 10° WSW 19:24:34 83° NNW 19:27:22 35° ENE
Cosmos 1125 Rocket 3.7 19:20:11 10° NW 19:25:27 58° NE 19:26:24 50° E
Cosmos 2227 Rocket 3.1 19:22:26 10° WNW 19:27:50 41° N 19:30:17 27° ENE
Cosmos 2150 Rocket 4.0 19:22:20 10° NW 19:27:52 80° NE 19:29:05 55° SE
Cosmos 2082 Rocket 3.6 19:22:49 10° NW 19:27:55 34° WSW 19:32:05 14° S
Cosmos 724 4.2 19:25:04 10° WSW 19:31:11 84° SSE 19:33:45 37° ENE
Cosmos 1300 3.7 19:33:31 37° NNE 19:33:31 37° NNE 19:35:57 10° NNE
Cosmos 2297 Rocket 3.1 19:28:26 10° WNW 19:33:50 42° N 19:36:00 30° ENE
USA 186 3.9 19:34:12 18° W 19:34:26 19° W 19:36:23 10° NW
SPOT 1/Viking Rocket 3.6 19:35:24 56° E 19:35:50 58° ENE 19:40:54 10° NNW
ATLAS CENTAUR R/B 1.6 19:44:52 10° WNW 19:49:26 77° WSW 19:49:26 77° WSW
Cosmos 1743 Rocket 3.7 19:46:07 10° NNW 19:50:02 68° N 19:50:02 68° N
Terra 2.4 19:51:08 44° NE 19:51:08 44° NE 19:55:15 10° NNW
SPOT 5 3.2 19:52:26 60° ENE 19:52:38 60° ENE 19:57:54 10° NNW
CARTOSAT-1 4.3 19:55:43 44° NNE 19:55:43 44° NNE 19:59:04 10° NNW
Cosmos 2298 Rocket 4.0 19:49:36 10° NW 19:54:57 74° WSW 19:55:36 65° S
Cosmos 1805 Rocket 4.4 19:52:40 10° N 19:55:56 40° NNE 19:55:56 40° NNE
MetOp-B 4.2 19:58:23 56° S 19:59:28 73° WSW 20:04:52 10° NNW
Cosmos 972 Rocket 3.8 19:54:28 10° NNW 19:59:32 83° ENE 19:59:42 81° E
Resurs 01 Rocket 2.5 19:59:19 40° SW 20:00:14 45° W 20:04:34 10° NNW
Cosmos 921 Rocket 4.1 19:56:06 10° WSW 20:00:25 44° NW 20:04:43 10° NNE
Cosmos 1844 Rocket 3.1 19:55:57 10° WSW 20:01:35 62° NNW 20:06:23 14° NE
Cosmos 1937 Rocket 4.3 19:57:43 10° NW 20:02:37 43° WSW 20:03:47 37° SW
Cosmos 2151 4.1 19:59:06 10° NNW 20:03:08 40° W 20:03:56 36° WSW
Cosmos 1072 Rocket 4.4 19:59:19 10° NNW 20:05:34 66° ENE 20:06:06 63° E
Cosmos 2219 3.6 20:02:15 10° NW 20:07:49 51° NNE 20:08:39 47° NE
SJ 16-02 2.5 20:05:12 10° NW 20:09:15 36° WSW 20:09:32 36° WSW
Meteor 2-3 Rocket 3.7 20:04:28 10° NNW 20:10:13 82° WSW 20:10:56 69° S
Cosmos 1464 Rocket 3.9 20:04:56 10° NNW 20:11:20 67° ENE 20:11:51 65° E
H-2A R/B 3.7 20:09:09 14° SSW 20:13:06 31° W 20:17:55 10° NNW
Lacrosse 5 4.1 20:12:19 10° WSW 20:14:42 13° SW 20:15:08 13° SW
GEOS 3 Rocket 3.9 20:16:39 56° SW 20:16:39 56° SW 20:21:37 10° WNW
Sich 1 4.2 20:12:47 10° NNW 20:15:34 36° N 20:15:34 36° N
Cosmos 2278 Rocket 2.1 20:11:51 10° SW 20:22:01 17° NE 20:23:17 10° NE
Cosmos-2242 4.1 20:19:33 39° N 20:19:33 39° N 20:22:21 10° NNE
Cosmos 1891 Rocket 4.4 20:12:14 10° NNW 20:18:42 73° ENE 20:19:14 69° ESE
Cosmos 1844 4.2 20:15:46 10° WSW 20:21:29 61° NNW 20:26:42 13° NE
Spot 2 Rocket 4.0 20:21:16 48° SW 20:21:55 51° WSW 20:26:54 10° NNW
Cosmos 2123 Rocket 3.9 20:25:16 58° SSW 20:26:37 88° WNW 20:32:57 10° NNE
Cosmos 1500 Rocket 4.3 20:22:24 10° NNW 20:26:08 54° NW 20:26:08 54° NW
ATLAS 5 CENTAUR R/B 2.5 20:26:51 10° WSW 20:30:17 49° WSW 20:30:17 49° WSW
Cosmos 2233 Rocket 4.4 20:28:11 10° NNW 20:34:18 57° W 20:35:58 44° SW
CZ-2C R/B 3.3 20:28:50 10° NNE 20:32:51 45° NE 20:32:51 45° NE
Cosmos 1238 Rocket 4.4 20:32:39 10° NNW 20:39:08 63° W 20:40:36 51° SSW
Cosmos 1833 4.4 20:34:28 10° NW 20:39:46 62° WSW 20:39:46 62° WSW
ERS-1 Rocket 3.3 20:42:35 62° WNW 20:42:35 62° WNW 20:47:09 10° NNW
Cosmos 1818 3.8 20:38:38 10° WNW 20:43:22 67° WNW 20:43:22 67° WNW
Cosmos 2034 Rocket 3.9 20:40:32 10° NNW 20:46:33 78° NE 20:46:33 78° NE
Cosmos 2263 Rocket 3.3 20:42:52 10° WNW 20:48:12 40° N 20:50:02 31° NE
Cosmos 1825 4.4 20:45:18 10° NNW 20:47:25 25° WNW 20:47:25 25° WNW
SL-24 R/B - RUBIN 2 4.3 20:48:04 10° W 20:53:08 74° WNW 20:53:08 74° WNW
Timation 2 Rocket 4.0 20:52:35 10° NW 20:58:02 63° W 20:58:02 63° W
Cosmos 1932 4.5 20:56:16 10° W 21:02:42 80° N 21:02:53 79° NNE
Cosmos 1125 Rocket 4.4 21:02:27 10° NW 21:06:40 44° W 21:06:40 44° W
ADEOS Rocket 4.1 21:01:00 10° NNE 21:08:34 57° NW 21:15:59 10° SW
Cosmos 1607 4.0 21:05:54 10° WNW 21:11:28 72° NW 21:11:28 72° NW
Cosmos 2227 Rocket 2.6 21:07:06 10° NW 21:12:05 58° N 21:12:05 58° N
Cosmos 2082 4.2 21:10:30 10° NW 21:15:36 53° N 21:15:36 53° N
Cosmos 2297 Rocket 2.7 21:13:00 10° NW 21:17:47 58° NNW 21:17:47 58° NNW
ATLAS CENTAUR R/B 3.9 21:24:03 10° WNW 21:25:37 19° W 21:25:37 19° W
Terra 3.2 21:30:01 36° NW 21:30:01 36° NW 21:33:10 10° NNW
SPOT 5 4.1 21:31:41 40° WNW 21:31:41 40° WNW 21:36:02 10° NNW
Resurs 01 Rocket 4.4 21:36:54 11° W 21:37:53 11° WNW 21:39:23 10° WNW
Cosmos 1634 Rocket 4.2 21:32:13 10° NNW 21:37:41 67° N 21:37:41 67° N
Cosmos 1844 Rocket 3.8 21:41:02 10° WNW 21:46:22 41° N 21:47:59 33° NNE
Cosmos 2219 4.1 21:46:40 10° NW 21:50:33 45° NW 21:50:33 45° NW
Cosmos 2278 Rocket 3.4 21:56:35 10° W 22:03:54 37° NNE 22:07:40 10° NE
Cosmos 1943 Rocket 4.1 22:06:34 20° NE 22:06:34 20° NE 22:08:12 10° NE
CZ-2C R/B 3.7 22:09:20 10° NNE 22:14:21 43° NW 22:14:21 43° NW
ATLAS 5 CENTAUR R/B 4.4 22:11:21 10° W 22:11:49 13° W 22:11:49 13° W
Mayak 1.5 22:24:08 10° NNE 22:24:55 15° NNE 22:24:55 15° NNE
Cosmos 2344 4.5 22:35:21 40° E 22:35:21 40° E 22:41:24 10° ENE
Cosmos 2263 Rocket 3.3 22:27:37 10° NW 22:31:42 41° NNW 22:31:42 41° NNW
SL-16 R/B 3.6 22:44:23 37° NE 22:44:53 38° NE 22:50:35 10° NNW
Cosmos 2227 Rocket 3.9 22:51:20 10° NW 22:53:53 27° WNW 22:53:53 27° WNW
Cosmos 2369 Rocket 3.7 23:03:01 31° NE 23:03:01 31° NE 23:05:52 10° NE
Cosmos 2297 Rocket 4.0 22:57:16 10° NW 22:59:34 24° WNW 22:59:34 24° WNW
H-2A R/B 4.5 23:05:37 21° NNE 23:05:37 21° NNE 23:07:55 10° N
ATLAS 3B R/B 4.0 23:23:58 28° ENE 23:23:58 28° ENE 23:26:51 10° ENE
Cosmos 1844 Rocket 4.0 23:25:54 10° NW 23:29:36 35° NNW 23:29:36 35° NNW
CENTAUR R/B 3.4 23:36:29 48° E 23:36:29 48° E 23:42:05 10° E
Resurs 1-4 Rocket 4.2 23:42:21 10° NE 23:45:31 19° ENE 23:45:31 19° ENE
Cosmos 1943 Rocket 3.2 23:48:05 42° NNE 23:48:05 42° NNE 23:52:11 10° NE
Cosmos 2278 Rocket 3.3 23:45:48 34° NNW 23:47:16 40° N 23:52:39 10° ENE
